STARLINK-6150, 57119

Orbit data source: Space-Track

STARLINK-6150, 57119 is a payload satellite owned by SpaceX/Seattle (US) in LEO that was launched on Fri, 23 Jun 2023 UTC via an FALCON 9 launch vehicle from the Air Force Eastern Test Range (AFETR). Payload-class satellites include a variety of spacecraft equipped with specific instruments for various scientific and technological missions. These include communications satellites like Starlink; space stations such as the ISS; scientific satellites like the Hubble; Earth observation satellites from companies like Planet Labs, Umbra, and HawkEye 360; GPS; miniature CubeSats for education and research; and military/defense satellites.

Loading next visibility...
Identifier
57119, 2023-090U
Orbit
LEO
Country
Flag of USUS
Related business
Manufacturer
SpaceX/Seattle
Mission
Operational Commercial Communications
Bus & Motor
STARLINK, Unknown motor
Mass
305 kg wet, ~290 kg dry
Launch date (UTC)
2023-06-23 (3 years ago)
Launch vehicle
FALCON 9
Launch site
Air Force Eastern Test Range (AFETR)
Object type
Payload
Rocket body
Debris
Shape & HBR
Box + 1 Pan, 10.1 m
Radar Cross Section
11.087 m², Large (>1 m²)

Expand to show TLE details & history
Last TLE update: 2 days ago

TLE from 2 days ago
0 STARLINK-6150
1 57119U 23090U   26171.04405814 -.00000942  00000-0 -24709-4 0  9993
2 57119  43.0041  63.7205 0001291 286.9989  73.0721 15.27566488165985
Epoch: 2026-06-20T01:03Z
TLE epoch observation values (Epoch: 2026-06-20T01:03:26.623Z)
Latitude
-0.00002°
Longitude
139.59521°
Altitude
482.608 km
Speed
7.626 km/s
True Right ascension
04h 14m 52s
True Declination
0° 00' 00"
Sunlit
Object was in daylight at epoch
Visualization orbit readout
Latitude
Unknown
Longitude
Unknown
Altitude
Unknown
Speed
Unknown
Apparent Right ascension
Unknown
Apparent Declination
Unknown
Sunlit
N/A
Visualization observer readout
Local Sidereal Time
21:30:36
Azimuth
Unknown
Elevation
Unknown
Doppler factor
Unknown
Orbital elements
Apogee altitude
485.92 km
Perigee altitude
484.148 km
Semi-major axis
6,863.171 km
Eccentricity
0.00013
Inclination
43.0041°
RAAN
63.7205°
Arg. of periapsis
286.9989°
True anomaly
73.08625°
Mean anomaly
73.0721°
Eccentric anomaly
73.07918°
Mean motion
3.8173 °/min
Orbital period
94.31 mins
BSTAR
-0.000024709
Loading maneuver chart data...
Computing Atmospheric mass density...
Loading historical data...
Loading historical data...
Loading historical data...
Loading historical data...
Loading historical data...
Loading historical data...
Loading historical data...

Documentation

Showing up to 5 results
|